Theta_e
316 314 315 315 315 311 315 315 316 317 319 319 320 320 321 324 327 326 342 345 344 343 340 338 339 341 339 336 335 333 331 331 332 332 333 335 335 336 335 335 335 337 339 340 339 337 337 339 335
313 317 316 309 314 315 314 315 317 316 318 318 320 321 322 341 339 341 343 345 345 343 342 340 337 338 341 339 336 335 332 332 334 333 332 335 335 334 333 332 332 335 336 338 337 336 337 336 333
317 319 313 312 312 315 316 317 318 317 317 317 318 319 323 338 341 341 341 342 345 344 345 343 339 336 338 340 340 340 340 340 338 336 335 336 336 333 332 330 331 334 335 336 335 335 335 333 332
315 314 310 314 316 316 316 317 317 317 317 317 316 318 329 335 341 342 342 341 342 343 345 344 342 337 336 340 341 342 340 340 338 337 335 334 333 335 333 332 334 335 334 333 333 334 332 331 330
316 309 313 314 314 314 315 315 314 316 317 319 318 319 334 339 341 341 342 342 342 344 345 344 342 339 335 339 342 342 341 340 339 335 333 331 331 330 328 332 330 335 334 333 333 332 330 329 328
312 309 312 314 315 316 314 315 317 317 318 320 320 327 332 339 340 339 339 342 342 343 343 343 342 341 336 337 341 343 342 341 339 334 332 330 329 328 326 327 331 333 332 332 330 330 329 329 326
314 311 312 312 313 315 317 315 316 318 318 319 321 321 334 335 338 338 337 339 340 341 341 339 339 339 340 337 338 339 341 341 339 335 332 332 328 328 326 326 332 332 331 330 328 326 326 328 325
311 311 315 312 315 315 316 316 316 317 317 318 319 326 335 331 337 336 334 336 337 338 338 337 335 333 336 338 338 337 338 340 339 336 335 328 327 326 327 328 327 331 331 327 326 325 327 327 326
312 313 312 313 314 315 315 316 316 315 317 317 318 320 326 334 335 334 334 333 332 334 335 336 335 334 334 334 337 336 338 339 337 330 326 324 326 329 327 326 330 330 329 327 325 327 327 326 320
314 312 316 314 314 316 315 315 314 316 315 317 317 328 334 334 333 331 331 332 333 333 334 334 335 334 333 332 333 334 335 332 330 326 325 324 324 324 328 328 330 328 328 327 326 327 326 320 320
313 318 317 316 314 313 314 314 315 315 314 314 316 322 334 333 331 331 331 332 333 332 334 334 332 333 333 333 332 332 333 331 329 325 324 325 325 327 327 328 328 328 327 325 325 328 324 319 320
317 315 314 315 315 314 315 314 314 313 314 315 313 317 333 333 332 331 331 331 331 332 333 333 332 332 334 335 332 331 332 331 329 328 326 325 326 330 330 330 329 328 326 324 325 325 324 318 319
316 317 317 316 315 314 314 315 315 314 313 313 313 321 332 332 331 331 331 331 331 332 333 332 331 332 332 333 332 331 331 331 330 328 328 327 327 327 327 326 327 328 325 321 323 324 323 318 319
317 317 316 316 316 315 315 315 314 313 314 315 315 314 322 331 329 328 326 328 330 332 332 331 329 327 331 330 332 331 330 330 329 329 328 328 327 328 329 326 325 327 322 319 320 322 321 318 319
315 315 316 316 316 316 316 316 315 314 314 315 315 315 314 313 324 326 324 329 331 330 331 329 328 327 327 329 331 332 331 329 328 329 328 327 327 327 326 325 326 324 316 316 318 319 318 318 319
317 317 318 317 316 316 315 318 316 315 314 315 314 315 314 314 312 314 323 329 329 330 329 328 326 325 325 328 329 329 329 330 330 328 328 327 327 326 326 326 325 317 313 315 315 316 317 317 319
316 319 318 317 317 316 315 317 316 314 315 315 316 316 316 315 311 318 327 330 329 330 328 326 325 325 325 326 326 327 327 328 329 329 328 327 327 327 322 324 319 311 311 315 313 314 317 317 318
317 317 316 317 316 316 316 317 315 314 315 316 316 316 313 312 313 324 328 329 328 328 327 326 325 325 324 324 325 325 326 328 328 329 328 327 327 327 326 322 315 309 315 317 313 315 316 318 318
315 315 314 314 314 313 313 313 313 314 316 316 317 315 312 311 317 327 328 327 326 326 326 325 324 324 323 323 324 322 323 325 328 328 328 327 327 327 324 322 314 311 317 317 315 314 317 318 318
308 309 311 311 311 311 311 314 315 315 316 316 316 317 313 313 323 326 326 325 325 324 324 323 323 323 323 322 321 321 321 321 323 325 327 328 327 325 324 321 315 314 319 318 317 317 317 317 317
306 306 307 308 310 313 317 316 315 316 317 318 318 317 315 313 325 327 326 324 323 323 322 323 323 322 322 321 321 320 319 319 319 321 322 324 327 327 323 322 316 318 319 318 318 317 317 317 317
307 307 306 306 307 310 317 318 316 316 317 317 318 318 316 312 324 327 327 324 323 322 322 323 323 322 320 321 320 319 317 316 316 317 318 321 324 325 323 320 317 319 319 317 317 316 316 316 315
308 308 308 307 314 318 320 321 316 319 319 319 318 318 318 314 323 327 327 325 323 322 322 323 322 322 321 321 320 318 317 317 316 315 316 318 319 320 320 319 319 319 318 317 316 316 315 315 315
312 312 314 316 317 320 321 320 316 318 318 318 319 319 319 314 323 327 327 325 323 322 322 321 322 320 320 320 319 318 317 316 315 315 316 317 316 316 316 317 318 319 319 317 316 316 316 315 315
312 313 315 318 320 321 318 321 318 318 318 318 319 319 319 318 322 327 327 324 323 321 321 321 322 319 320 320 319 317 316 316 315 315 315 316 317 318 319 319 319 319 318 317 316 315 315 315 315
311 313 316 320 321 320 322 324 324 321 319 320 321 321 321 320 327 328 327 324 323 322 321 322 322 320 320 319 318 316 315 315 315 315 315 315 316 317 318 317 317 318 317 316 315 314 312 313 314
311 314 314 317 318 319 320 319 317 319 321 323 324 321 318 317 327 329 327 325 324 322 322 322 322 321 320 319 318 316 315 315 315 315 315 315 314 315 315 315 314 314 314 314 314 314 315 314 313
312 313 316 315 319 320 317 315 317 320 323 325 324 323 322 322 330 329 328 326 324 323 322 321 322 322 320 320 318 316 316 315 315 314 315 314 314 314 314 314 314 314 314 314 316 316 316 317 315
310 310 315 316 317 319 318 317 323 324 324 323 322 322 321 320 327 330 329 327 326 323 322 321 321 322 321 321 319 317 316 316 316 315 314 315 314 314 315 314 315 314 316 316 315 315 316 316 317
313 310 314 317 318 317 317 318 320 321 324 321 320 321 323 321 320 329 329 328 325 323 322 321 321 321 322 322 321 319 317 317 316 316 314 314 315 314 314 315 315 316 317 317 317 317 317 319 318
Wind_Speed
9 7 1 3 3 4 4 7 5 8 3 3 4 6 5 2 3 3 13 13 16 17 14 12 13 14 15 16 16 19 20 19 18 18 20 21 24 25 26 27 27 27 27 25 26 25 26 28 32
9 5 2 2 3 1 5 5 6 5 6 6 6 5 4 0 2 8 13 17 16 16 14 13 13 15 15 16 16 16 18 19 20 20 20 21 22 23 23 24 24 25 26 25 26 25 27 30 32
7 3 3 4 3 5 5 3 3 5 7 6 5 2 8 7 2 16 12 22 19 17 17 15 14 16 17 18 17 17 19 18 20 23 26 24 21 19 19 19 23 27 28 25 25 26 29 32 32
4 5 4 2 9 9 6 6 8 4 4 2 6 4 5 5 16 16 27 24 21 17 17 14 14 15 18 20 20 19 21 22 24 27 26 23 22 21 14 16 19 26 28 27 26 28 32 33 31
2 3 1 3 9 7 6 5 10 8 4 5 4 5 4 2 12 26 26 23 22 20 18 17 15 15 17 18 20 21 23 26 28 29 27 24 23 23 21 13 17 23 27 26 27 31 32 34 33
2 2 2 5 10 7 8 7 8 8 5 5 5 8 5 16 31 28 25 23 19 20 18 16 15 15 16 17 19 21 25 28 30 30 28 21 19 22 14 16 26 24 26 27 28 33 35 35 34
5 3 5 5 5 11 7 8 6 6 4 4 4 7 1 5 26 28 25 22 19 17 15 12 12 12 14 17 19 20 25 28 29 29 24 15 18 24 22 32 25 28 30 27 33 33 34 36 37
5 3 4 5 5 12 3 10 5 7 6 1 7 5 5 8 27 24 21 19 17 16 15 13 11 12 13 15 16 19 24 26 26 29 21 18 18 22 33 34 38 32 31 29 36 36 36 34 29
5 1 6 7 8 10 4 5 6 8 3 3 6 8 8 25 28 23 19 17 17 17 16 14 13 12 12 10 14 17 21 24 23 21 19 19 15 14 25 36 40 37 32 37 37 36 35 29 22
5 5 10 6 8 11 8 4 6 4 7 4 4 5 20 29 26 20 18 18 23 22 21 18 18 15 14 14 15 17 21 22 21 21 26 20 18 18 22 31 34 30 31 38 38 36 34 26 27
6 12 13 12 9 10 11 9 3 3 5 8 8 2 11 15 16 17 20 25 34 27 24 24 20 18 18 18 16 18 20 21 21 23 25 20 18 19 26 32 32 32 30 35 34 36 33 28 32
7 8 8 14 13 11 18 8 8 6 12 8 10 5 12 12 14 15 17 25 26 27 28 26 22 22 21 18 18 17 21 22 25 24 24 23 22 25 25 28 39 36 35 38 37 36 32 27 23
9 12 14 16 14 15 16 16 15 11 13 9 9 9 15 17 17 23 29 28 26 30 30 29 24 24 22 21 19 20 24 26 27 24 24 27 22 21 26 24 34 36 36 37 36 36 34 27 25
6 11 14 11 15 9 9 10 3 11 7 8 9 12 12 17 20 23 16 23 27 32 34 29 22 23 25 21 22 23 23 24 25 27 28 27 21 19 23 43 39 37 36 38 37 37 35 26 20
10 13 13 6 6 6 8 13 10 9 8 9 11 12 12 13 22 19 27 30 35 35 36 29 23 19 22 24 21 22 23 26 26 28 31 30 25 28 27 38 37 35 37 38 36 37 32 23 20
3 4 4 4 4 6 7 23 11 11 9 11 13 15 14 13 13 25 30 33 33 37 35 29 24 20 18 20 21 21 21 22 27 29 32 33 29 32 36 38 37 39 39 39 37 37 32 23 25
3 12 9 5 5 5 7 13 8 10 7 9 12 18 16 16 11 15 32 37 41 42 37 32 26 23 19 17 17 18 20 22 26 30 33 35 34 37 41 40 40 42 42 39 37 39 32 26 26
8 7 5 5 3 8 15 19 10 7 7 12 14 21 14 11 13 21 33 34 38 39 37 32 28 25 21 19 18 17 18 21 25 29 35 37 37 40 44 40 41 46 47 38 38 40 30 28 27
3 5 7 1 5 5 10 20 12 7 11 15 16 16 12 10 6 24 29 32 34 36 37 35 31 27 25 22 18 16 18 20 24 26 33 34 37 43 46 45 41 40 41 42 40 40 36 30 27
9 11 17 13 10 12 13 20 11 7 10 10 10 16 13 4 8 15 24 28 33 35 35 35 32 29 26 24 20 17 19 18 23 22 25 34 35 35 45 43 41 36 33 39 41 36 32 26 30
12 13 12 17 10 7 4 19 14 13 11 13 18 14 14 10 16 15 16 24 28 32 36 37 33 30 26 23 21 16 17 15 17 23 26 28 33 40 42 47 47 33 35 41 39 39 32 27 29
15 16 19 16 7 9 4 18 12 12 18 20 20 17 16 10 16 19 17 17 29 30 33 36 33 29 27 26 24 22 16 13 13 20 21 27 33 36 40 42 43 39 37 40 42 41 35 31 27
14 17 15 17 6 4 3 3 8 1 12 20 18 17 17 10 17 22 20 26 29 32 34 35 32 28 28 27 25 26 17 15 22 21 21 22 23 31 39 48 46 47 45 42 40 38 33 35 30
5 7 5 2 4 4 6 4 21 3 10 16 17 13 17 7 14 21 21 25 27 28 32 33 29 27 31 29 27 26 23 22 22 23 23 21 23 25 30 38 38 42 44 41 33 29 28 27 27
5 2 2 2 1 6 7 7 15 15 15 20 24 21 22 15 11 18 20 18 25 29 29 29 29 27 31 31 29 29 28 27 23 27 25 24 24 27 28 30 33 38 39 38 30 27 22 22 23
8 8 5 6 5 7 6 6 5 6 12 21 16 15 20 18 14 21 22 20 26 30 30 30 30 28 31 31 29 30 30 28 24 24 22 21 24 30 31 33 36 38 40 37 29 26 19 23 24
7 8 7 4 3 3 4 5 6 5 12 21 21 24 17 18 20 22 19 18 26 30 33 33 32 29 31 31 27 28 30 27 27 28 23 25 23 23 31 36 36 33 38 43 35 31 31 29 30
11 7 1 2 6 13 6 6 8 9 16 16 21 16 15 9 17 17 18 19 27 30 30 30 31 32 32 32 29 29 29 28 28 26 26 27 29 27 32 35 37 35 38 39 37 35 36 33 34
4 1 1 1 4 5 2 4 6 7 9 19 20 21 15 12 6 14 17 20 26 27 30 31 30 31 31 33 31 29 30 29 26 30 30 30 32 31 33 36 37 39 35 39 40 39 39 36 33
3 3 5 4 5 5 3 5 9 8 12 5 16 19 20 17 7 10 12 15 21 25 28 31 30 31 33 32 31 30 30 30 30 28 33 31 33 35 37 38 39 37 39 39 40 39 37 37 36
Wind_Direction
215 210 217 49 49 67 266 262 261 290 186 236 137 109 147 130 152 212 150 159 152 150 150 160 166 168 169 170 166 159 159 158 157 150 147 150 151 152 153 154 155 152 145 140 137 142 141 134 137
174 150 66 83 99 63 264 250 223 240 177 171 117 114 116 27 131 134 141 169 159 155 155 160 172 175 175 174 177 172 167 160 158 157 151 154 154 156 158 159 160 158 152 145 145 149 141 139 141
147 137 92 128 155 203 217 254 51 281 188 169 142 176 143 174 124 154 175 168 166 165 163 162 169 179 182 182 181 174 162 160 154 156 152 152 149 154 159 159 159 157 153 150 155 152 144 144 141
147 25 11 124 239 249 214 285 320 257 282 228 148 122 66 296 157 175 159 168 169 169 165 161 171 179 187 187 185 181 173 169 173 166 156 150 155 147 146 161 167 160 153 154 159 154 149 146 141
109 76 121 254 258 253 254 220 250 243 202 193 150 150 108 13 165 154 156 163 164 169 173 165 173 179 189 191 192 189 180 185 181 171 161 151 154 158 150 171 196 176 160 163 160 158 154 145 139
20 98 109 229 257 281 284 285 290 223 187 204 142 127 157 144 145 156 154 165 170 165 166 167 175 183 190 192 195 195 190 192 184 173 174 187 208 208 199 190 213 183 169 166 165 158 155 150 141
137 100 228 232 266 289 267 306 219 193 176 200 167 116 63 166 154 155 158 155 161 168 169 171 174 178 196 197 200 202 197 199 195 191 191 217 222 231 215 186 203 184 174 175 160 161 160 153 144
137 116 259 233 215 270 271 340 305 163 218 222 144 160 181 207 164 159 157 160 165 172 179 177 181 187 189 202 205 207 207 205 206 203 216 232 212 213 214 193 176 190 176 176 160 159 156 153 150
132 158 237 217 203 255 359 359 331 313 145 213 195 160 200 165 163 150 148 160 175 188 189 184 177 181 190 192 200 205 205 205 197 207 206 184 186 196 204 194 169 187 176 172 161 161 157 151 149
159 187 234 211 233 276 314 317 305 305 325 291 277 49 133 149 160 159 167 177 184 187 181 186 180 185 189 189 196 203 200 198 206 196 186 192 198 190 179 184 181 177 176 171 164 166 159 149 150
220 229 249 268 262 261 275 283 244 221 253 246 234 172 161 162 176 176 187 186 191 191 180 182 187 183 192 195 185 201 205 201 203 195 192 201 193 182 183 176 178 181 174 170 171 168 163 146 149
246 243 240 262 257 266 267 271 258 207 241 213 224 209 161 180 190 195 194 198 196 188 185 178 183 182 188 194 192 202 204 201 195 200 203 198 186 185 185 198 170 177 175 174 174 173 166 153 140
234 248 253 260 257 255 267 264 258 252 255 235 251 171 180 191 200 211 204 202 196 184 184 178 184 185 185 194 196 199 203 202 194 196 194 186 188 197 204 163 156 175 175 173 177 176 172 155 142
261 236 249 252 262 260 258 266 234 260 260 261 268 264 196 195 205 210 185 195 191 183 181 178 183 188 191 188 197 200 196 198 194 193 188 191 196 181 178 173 173 178 176 173 176 177 173 159 145
255 266 278 248 233 248 284 278 243 254 271 263 262 256 258 207 211 210 189 182 184 182 180 177 178 183 183 192 192 197 203 203 200 195 192 191 191 176 156 155 176 178 175 171 174 173 170 157 144
256 248 250 152 228 248 210 270 261 268 270 269 265 262 251 245 218 204 189 181 171 173 176 173 175 172 178 188 198 199 203 204 207 207 200 196 189 183 170 171 178 177 169 171 174 170 167 158 150
238 255 257 300 221 266 219 280 265 266 289 279 285 276 256 245 223 160 168 170 173 175 173 173 171 167 170 182 196 204 208 207 203 206 198 192 186 185 180 176 177 173 167 170 173 169 167 161 152
220 250 214 200 239 276 280 281 275 290 304 295 297 293 251 232 209 163 165 168 166 170 171 170 167 167 169 183 193 201 203 214 211 199 198 198 190 189 189 183 177 170 167 171 170 170 170 167 153
242 257 250 308 249 286 269 275 276 280 301 300 303 290 243 221 205 157 158 157 158 165 167 169 166 168 169 180 189 202 210 214 207 196 198 194 193 195 187 184 179 172 169 173 173 172 171 171 163
250 261 268 280 260 257 269 274 280 259 272 268 295 302 261 190 143 155 155 157 161 160 164 167 168 170 176 186 199 204 203 204 215 214 210 201 190 184 183 180 176 177 172 171 174 172 166 169 169
246 241 254 249 267 263 265 275 283 298 309 300 291 284 269 204 164 164 165 165 159 162 167 168 171 171 179 183 183 190 190 187 184 202 215 216 199 194 184 182 170 184 172 169 170 172 165 165 169
244 238 247 256 237 256 181 275 259 287 276 281 277 285 277 231 178 172 168 166 169 168 166 169 171 171 175 181 183 189 178 165 175 177 183 195 201 189 182 172 172 183 168 171 175 175 174 167 173
239 248 240 245 211 133 230 263 278 200 287 274 272 271 276 238 182 173 181 174 169 163 165 169 169 166 172 183 188 187 172 172 169 161 154 170 171 175 176 175 173 176 170 168 175 176 169 181 181
256 232 217 141 135 234 181 159 284 227 248 275 273 275 276 237 189 186 176 159 159 160 163 167 166 168 175 182 187 183 173 165 162 161 161 149 147 146 154 155 167 168 170 174 176 176 181 192 184
199 197 231 282 210 236 191 207 258 270 265 270 277 282 281 283 189 170 164 160 160 166 164 166 169 170 175 180 184 188 182 176 172 170 169 166 155 151 147 147 152 164 170 179 188 184 194 197 206
205 179 179 211 218 255 204 234 247 226 330 310 250 312 269 256 180 179 174 164 164 167 167 170 172 171 175 180 183 189 188 179 175 177 177 174 173 170 174 174 172 175 183 184 192 208 209 220 225
210 224 189 208 188 267 224 275 294 16 346 340 350 347 312 261 179 175 171 162 165 170 174 174 173 173 176 180 180 182 187 180 179 184 185 182 180 177 182 178 175 179 183 189 198 214 224 233 231
195 170 202 228 223 252 259 265 258 12 340 330 325 335 355 332 163 167 169 167 173 176 172 173 175 174 177 180 183 182 186 188 184 184 185 185 186 183 185 188 187 190 195 198 208 215 228 232 230
171 184 115 59 169 217 300 255 93 61 322 336 321 335 357 351 282 178 174 176 172 168 171 174 175 174 178 180 183 187 188 189 191 191 192 191 191 190 194 193 194 200 204 211 216 218 229 231 234
52 244 172 173 240 230 207 256 124 170 235 4 317 322 330 335 351 208 181 169 168 169 172 177 176 177 179 180 182 189 192 190 192 198 197 196 197 199 202 201 204 205 210 214 217 221 227 228 238